#timestamp,LO_Frequency,Hit,StdDev 
1546578015.8,286047002.1,N
1546578035.6,286047000.2,N
1546578055.5,286047000.9,N
1546578075.3,286047000.8,N
1546578095.2,286046998.2,N
1546578115.9,286047002.4,N
1546578135.7,286047002.7,N
1546578155.6,286047002.7,N
1546578175.4,286046999.9,N
1546578195.2,286047000.4,N
1546578215.1,286047001.1,N
1546578216.0,286047001.1,N
1546578235.8,286047000.6,N
1546578255.7,286047000.2,N
1546578275.5,286047001.5,N
1546578295.3,286046999.9,N
1546578315.2,286047002.7,N
1546578335.9,286047002.8,N
1546578355.7,286047002.3,N
1546578375.6,286047002.1,N
1546578395.4,286047000.2,N
1546578415.2,286047002.7,N
1546578435.1,286047007.1,Y
1546578436.0,286047007.1,P
1546578455.8,286047006.7,N
1546578475.7,286047009.1,P
1546578495.5,286047007.1,N
1546578515.3,286047003.3,N
1546578535.2,286047003.7,N
1546578555.0,286047000.1,N
1546578555.9,286047000.1,N
1546578575.8,286047001.5,N
1546578595.6,286046999.9,N
1546578615.4,286046999.9,N
1546578635.3,286047000.2,N
1546578655.1,286047002.4,N
1546578675.8,286046999.7,N
1546578695.7,286047001.1,N
1546578715.5,286047000.9,N
1546578735.3,286047004.0,N
1546578755.2,286047001.0,N
1546578775.0,286046999.5,N
1546578775.9,286046999.5,N
1546578795.8,286046999.5,N
1546578815.6,286047000.2,N
1546578835.4,286047000.3,N
1546578855.3,286047000.9,N
1546578875.1,286047000.0,N
1546578895.8,286047001.4,N
1546578915.7,286047002.9,N
1546578935.5,286047003.6,N
1546578955.4,286047001.8,N
1546578975.2,286047002.0,N
1546578995.0,286047002.7,N
1546578995.9,286047002.7,N
1546579015.8,286047001.3,N
1546579035.6,286046999.8,N
1546579055.4,286047004.3,Y
1546579075.3,286047000.9,P
1546579095.1,286046999.7,N
1546579115.9,286046998.5,N
1546579135.7,286047002.2,N
1546579155.5,286047004.6,Y
1546579175.4,286047003.5,P
1546579195.2,286047000.2,N
1546579215.0,286047001.0,N
1546579216.0,286047001.0,N
1546579235.8,286046998.4,N
1546579255.6,286047000.6,N
1546579275.5,286046999.4,N
1546579295.3,286046998.4,N
1546579315.1,286046999.6,N
1546579335.9,286046996.8,N
1546579355.7,286046995.1,N
1546579375.5,286046997.5,N
1546579395.4,286046993.4,Y
1546579415.2,286046994.9,P
1546579435.1,286046996.1,N
1546579436.0,286046996.1,N
1546579455.8,286046997.7,N
1546579475.6,286046998.5,N
1546579495.5,286046996.8,N
1546579515.3,286046999.6,N
1546579535.1,286046996.9,N
1546579555.9,286046999.3,N
1546579575.7,286047000.9,N
1546579595.6,286047001.4,N
1546579615.4,286047001.0,N
1546579635.2,286046999.4,N
1546579655.1,286046999.2,N
1546579656.0,286046999.2,N
1546579675.8,286046998.7,N
1546579695.6,286047002.6,N
1546579715.5,286046998.5,N
1546579735.3,286046998.6,N
1546579755.2,286047001.5,N
1546579775.9,286046999.8,N
1546579795.7,286046998.5,N
1546579815.6,286046999.4,N
1546579835.4,286046999.3,N
1546579855.3,286046997.2,N
1546579875.1,286046996.9,N
1546579876.0,286046996.9,N
1546579895.8,286046998.4,N
1546579915.7,286047000.5,N
1546579935.5,286046998.2,N
1546579955.3,286047000.8,N
1546579975.2,286046998.5,N
1546579995.0,286047001.0,N
1546579995.9,286047001.0,N
1546580015.8,286047001.2,N
1546580035.6,286046999.1,N
1546580055.4,286046999.9,N
1546580075.3,286046998.8,N
1546580095.1,286046998.1,N
1546580115.9,286047000.0,N
1546580135.7,286047004.0,N
1546580155.5,286047000.3,N
1546580175.4,286047000.2,N
1546580195.2,286047000.8,N
1546580215.0,286046999.3,N
1546580215.9,286046999.3,N
1546580235.8,286046997.2,N
1546580255.6,286046996.8,N
1546580275.5,286046997.9,N
1546580295.3,286046999.2,N
1546580315.1,286047000.8,N
1546580335.9,286046999.3,N
1546580355.7,286046996.6,N
1546580375.5,286046996.9,N
1546580395.4,286046997.6,N
1546580415.2,286046995.2,N
1546580435.1,286046997.3,N
1546580436.0,286046997.3,N
1546580455.8,286046998.9,N
1546580475.6,286046997.3,N
1546580495.5,286046994.9,N
1546580515.3,286046994.9,N
1546580535.1,286046998.0,N
1546580555.9,286046994.4,N
1546580575.7,286046994.1,N
1546580595.6,286046993.8,N
1546580615.4,286046995.8,N
1546580635.2,286046993.4,N
1546580655.1,286046993.3,N
1546580656.0,286046993.3,N
1546580675.8,286046993.7,N
1546580695.6,286046995.2,N
1546580715.5,286046997.8,N
1546580735.3,286046995.0,N
1546580785.2,286046996.5,E
1546580795.1,286046998.1,N
1546580815.9,286047002.2,P
1546580835.7,286047001.6,N
1546580855.5,286047002.1,N
1546580875.4,286047002.8,N
1546580895.2,286047001.9,N
1546580915.0,286047000.5,N
1546580915.9,286047000.5,N
1546580935.8,286047000.0,N
1546580955.6,286047001.1,N
1546580975.5,286046999.1,N
1546580995.3,286046997.0,N
1546581015.1,286046999.9,N
1546581035.9,286047000.0,N
1546581055.7,286047000.1,N
1546581075.5,286046998.6,N
1546581095.4,286046998.7,N
1546581115.2,286046998.1,N
1546581135.0,286046998.3,N
1546581136.0,286046998.3,N
1546581155.8,286046998.4,N
1546581175.6,286047000.4,N
1546581195.5,286047000.6,N
1546581215.3,286047001.5,N
1546581235.1,286047000.6,N
1546581255.9,286046998.6,N
1546581275.7,286046999.3,N
1546581295.6,286046999.6,N
1546581315.4,286046997.2,N
1546581335.2,286046997.2,N
1546581355.1,286046997.1,N
1546581356.0,286046997.1,N
1546581375.8,286047001.2,N
1546581395.6,286047003.8,N
1546581415.5,286046999.8,N
1546581435.3,286047001.1,N
1546581455.2,286047001.0,N
1546581475.9,286046998.2,N
1546581495.7,286046999.8,N
1546581515.6,286047001.5,N
1546581535.4,286047000.5,N
1546581555.2,286046998.3,N
1546581575.1,286046998.2,N
1546581576.0,286046998.2,N
1546581595.8,286046998.9,N
